Content
SEND FEEDBACK

Daily
Averages
Monthly
Summary
United States of America

POMONA, CALIFORNIA


Home > North America > United States > California
Elevation: 860 feet     Latitude: 34 04N     Longitude: 117 46W

WEATHER
 
SELECT A DAY
Number of Records: 186,015;   Date Range: 1/1/95 - 11/24/14
 
SHARE

PRINT THIS DATA

[ ← Previous Day ]
WEATHER ALMANAC - JANUARY 23, 2013
[ Next Day → ]
[ °C ]   °F
Weather ElementAverageHighLow
Temperature58.2 °F72 °F (2:53 pm)44.1 °F (1:53 am)
Dewpoint35.4 °F41 °F (11:53 pm)30 °F (3:53 am)
Humidity44.9 %63 % (1:53 am)25 % (2:53 pm)
Barometer30.08 in30.14 in (11:53 pm)30.04 in (2:53 pm)
Wind Speed3.2 mph17.3 mph (3:53 pm)
Weather ElementAverage
Visibility9.5 mi
Wind DirectionESE (111.5 °)

Weather ElementTotal
Precipitation---
Heating Degree Days7 (Base 65)
Growing Degree Days8.1 (Base 50)
Averaged from 20 records on January 23, 2013
WEATHER CONDITIONS BREAKOUT
WIND DIRECTION BREAKOUT
WEATHER BY HOUR - JANUARY 23, 2013
[ °C ]   °F
Local TimeTemperatureDewpointHumidityBarometerVisibilityWind DirectionWind SpeedGust SpeedPrecipitationEventsConditions
1:53 AM44.1 °F32.0 °F63 %30.08 in9.0 miCalmClear
2:53 AM46.0 °F32.0 °F58 %30.07 in9.0 miCalmClear
3:53 AM48.9 °F30.0 °F48 %30.06 in9.0 miCalmClear
4:53 AM48.0 °F34.0 °F58 %30.06 in9.0 miCalmClear
5:53 AM46.9 °F35.1 °F63 %30.06 in8.0 miCalmClear
6:53 AM48.0 °F35.1 °F61 %30.08 in10.0 miCalmOvercast
7:53 AM50.0 °F37.0 °F61 %30.09 in10.0 miCalmMostly Cloudy
8:53 AM55.9 °F39.9 °F55 %30.09 in10.0 miNorth (360°)3.5 mphMostly Cloudy
9:53 AM64.9 °F35.1 °F33 %30.10 in10.0 miCalmMostly Cloudy
10:53 AM70.0 °F37.0 °F30 %30.09 in10.0 miCalmMostly Cloudy
11:53 AM71.1 °F34.0 °F26 %30.07 in10.0 miWSW (240°)3.5 mphMostly Cloudy
2:53 PM72.0 °F34.0 °F25 %30.04 in10.0 miWest (270°)9.2 mphMostly Cloudy
3:53 PM70.0 °F33.1 °F26 %30.05 in10.0 miWSW (240°)17.3 mphMostly Cloudy
5:53 PM64.0 °F35.1 °F34 %30.07 in10.0 miCalmPartly Cloudy
6:53 PM64.0 °F35.1 °F34 %30.09 in10.0 miCalmOvercast
7:53 PM63.0 °F37.0 °F38 %30.10 in10.0 miNNE (30°)5.8 mphOvercast
8:53 PM63.0 °F34.0 °F34 %30.09 in9.0 miSE (140°)5.8 mphOvercast
9:53 PM57.9 °F39.9 °F51 %30.11 in9.0 miNNW (340°)3.5 mphOvercast
10:53 PM59.0 °F37.9 °F46 %30.13 in9.0 miNNW (330°)6.9 mphOvercast
11:53 PM57.9 °F41.0 °F53 %30.14 in8.0 miWest (280°)8.1 mph0.00 inRainLight Rain
Hourly data recorded from KCNO, located miles away from Pomona, California







STORIES FROM OUR PARTNERS